Regional Weather Roundup
Issued by NWS Upton, NY

Current Version | Previous Version | Graphics & Text | Print | Product List | Glossary Off
Versions: 1 2 3 4 5 6 7 8 9 10 11 12 13 14 15 16 17 18 19 20 21 22 23 24 25 26 27 28 29 30 31 32 33 34 35 36 37 38 39 40 41 42 43 44 45 46 47 48 49 50

000
ASUS41 KOKX 270805
RWROKX

REGIONAL WEATHER ROUNDUP
NATIONAL WEATHER SERVICE NEW YORK NY
400 AM EDT SUN JUL 27 2014

NOTE: "FAIR" INDICATES FEW OR NO CLOUDS BELOW 12,000 FEET WITH NO
SIGNIFICANT WEATHER AND/OR OBSTRUCTIONS TO VISIBILITY.

NYZ071-072-176-178-NJZ106-104-270900-
NEW YORK CITY METRO AREA


CITY           SKY/WX    TMP DP  RH WIND       PRES   REMARKS
CENTRAL PARK   CLEAR     72  67  84 SW5       29.87S
LAGUARDIA APRT MOCLDY    72  67  84 S5        29.83S
KENNEDY INTL   PTCLDY    71  68  90 S7        29.86R
NEWARK/LIBERTY MOCLDY    71  68  90 S5        29.84F
BRNX BOT. GARD   N/A     70  66  88 SW1       29.86R
TETERBORO      CLEAR     72  67  84 S5        29.83F
$$

NYZ177-179-078>081-270900-
LONG ISLAND NEW YORK

CITY           SKY/WX    TMP DP  RH WIND       PRES   REMARKS
FARMINGDALE    CLOUDY    70  69  97 S5        29.85F
ISLIP          CLOUDY    74  69  85 SW8       29.84F
SHIRLEY        CLOUDY    72  69  90 S7        29.87F
WESTHAMPTON    PTCLDY    71  68  90 S5        29.88F
MONTAUK POINT    N/A     71  67  87 S5        29.89S
$$

NYZ052-065-067-270900-
HUDSON VALLEY

CITY           SKY/WX    TMP DP  RH WIND       PRES   REMARKS
WHITE PLAINS   CLEAR     66  65  96 CALM      29.85R FOG
NEWBURGH       PTCLDY    66  66 100 CALM      29.85
MONTGOMERY     MOCLDY    63  62  97 CALM      29.83F
POUGHKEEPSIE   CLEAR     66  63  90 CALM      29.81F
ALBANY         LGT RAIN  69  63  81 S9        29.79F
$$

NJZ001-105-106-008-010-013-015-019>022-104-270900-
NEW JERSEY

CITY           SKY/WX    TMP DP  RH WIND       PRES   REMARKS
NEWARK/LIBERTY MOCLDY    71  68  90 S5        29.84F
TETERBORO      CLEAR     72  67  84 S5        29.83F
CALDWELL       CLEAR     69  66  90 CALM      29.84S
MORRISTOWN     CLOUDY    66  64  94 CALM      29.84F FOG
SOMERVILLE     MOCLDY    66  64  93 CALM      29.81F FOG
LINDEN         FAIR      71  68  89 CALM      29.86S
SUSSEX         PTCLDY    66  62  87 CALM      29.83F
ANDOVER          N/A     68  67  96 CALM      29.84F
TRENTON        MOCLDY    70  68  93 S5        29.84S
MILLVILLE      CLOUDY    72  70  93 CALM      29.85F
ATLANTIC CITY  MOCLDY    72  69  90 S5        29.86S
WRIGHTSTOWN    MOCLDY    68  68  99 S5        29.83F
TOMS RIVER     MOCLDY    70  68  94 S3        29.86S
BELMAR         PTCLDY    70  64  83 SW5       29.86R
$$

PAZ047>061-062-071-270900-
EASTERN PENNSYLVANIA

CITY           SKY/WX    TMP DP  RH WIND       PRES   REMARKS
PHILADELPHIA   CLOUDY    73  68  84 S7        29.84F
ALLENTOWN      LGT RAIN  68  64  88 CALM      29.83S FOG
SCRANTON       CLOUDY    71  60  68 CALM      29.82F
$$

CTZ002-004>006-009-010-012-RIZ004-006-007-MAZ004-011-015-270900-
SOUTHERN NEW ENGLAND
 IN CT

CITY           SKY/WX    TMP DP  RH WIND       PRES   REMARKS
BRADLEY INTL   MOCLDY    69  65  86 S7        29.83F
HARTFORD       CLOUDY    70  66  87 S6        29.84F
DANBURY        MOCLDY    68  65  90 CALM      29.86F FOG
WTRBRY/OXFORD  CLOUDY    68  64  88 S6        29.87F
BRIDGEPORT     PTCLDY    72  68  87 S8        29.84F
MERIDEN        CLOUDY    69  65  86 CALM      29.85F
NEW HAVEN      PTCLDY    73  69  87 VRB3      29.85F
CHESTER        CLOUDY    70  68  94 S6        29.87F
GROTON         CLOUDY    69  68  96 S5        29.87S
WILLIMANTIC    CLOUDY    68  65  90 S5        29.87S

 IN RI

CITY           SKY/WX    TMP DP  RH WIND       PRES   REMARKS
PROVIDENCE     CLOUDY    68  65  90 S6        29.88F
BLOCK ISLAND   MOCLDY    70  64  83 SW10      29.89S
WESTERLY       CLOUDY    71  67  87 S9        29.88F

 IN MA

CITY           SKY/WX    TMP DP  RH WIND       PRES   REMARKS
BOSTON         PTCLDY    67  63  87 S5        29.86S
WORCESTER      CLOUDY    65  64  97 SW6       29.88S
WESTFIELD      CLOUDY    67  64  90 SE5       29.83F
PROVINCETOWN   PTCLDY    66  64  94 S9        29.88S
NANTUCKET      CLOUDY    66  64  93 S5        29.91S
$$

ANZ330-335-338-340-345-350-353-355-270900-
COASTAL MARINE OBSERVATIONS


STATION/POSITION TIME  SKY/WX   TEMP    WIND        PRES    VSBY  WAVE
                                AIR SEA DIR/SP/G                  HT/PER
                 (UTC)          (F)     (DEG/KT/KT) (MB)    (MI)  (FT/S)
NY HARB ENTRANCE NOT AVBL
4S FIRE IS       NOT AVBL
23SW MTP         0800            72 71              1011.3          3/ 8
HUDSON CANYON    0800            74 74  200/  8/ 10 1011.9          2/ 7
EXECUTION ROCKS  0800            72 71  200/ 10/ 12   N/A
WESTERN LI SOUND 0800            71     190/  8/ 10   N/A           0
CENTRAL LI SOUND 0700            71 71  200/ 10/ 12   N/A           1/ 2
EASTERN LI SOUND 0700            69 67  220/ 10/ 12   N/A
ROBBINS REEF     0800            72     180/  6/  7   N/A
$$


>>>>>>>>>>>>>>>>>>>>>>>>>>>> KEY <<<<<<<<<<<<<<<<<<<<<<<<<<<
>                                                          <
>     SKY/WX - SKY CONDITION/PRESENT WEATHER               <
>     TMP    - TEMPERATURE IN FAHRENHEIT                   <
>     DP     - DEWPOINT IN FAHRENHEIT                      <
>     RH     - RELATIVE HUMIDITY IN PERCENT                <
>     WIND   - DIRECTION AND SPEED IN MPH                  <
>     PRES   - MEAN SEA LEVEL PRESSURE IN INCHES OF HG     <
>     WCI    - WIND CHILL INDEX                            <
>     VSB    - VISIBILITY IN MILES                         <
>     HX     - HEAT INDEX                                  <
>     TC     - TEMPERATURE IN CELSIUS                      <
>     VRB    - VARIABLE WIND DIRECTION                     <
>                                                          <
>>>>>>>>>>>>>>>>>>>>>>>>>>>> KEY <<<<<<<<<<<<<<<<<<<<<<<<<<<





USA.gov is the U.S. government's official web portal to all federal, state and local government web resources and services.